Regional Weather Roundup
Issued by NWS Newport/Morehead, NC

Current Version | Previous Version | Graphics & Text | Print | Product List | Glossary On
Versions: 1 2 3 4 5 6 7 8 9 10 11 12 13 14 15 16 17 18 19 20 21 22 23 24 25 26 27 28 29 30 31 32 33 34 35 36 37 38 39 40 41 42 43 44 45 46 47 48 49 50
000 ASUS42 KMHX 030925 RWRMHX WEATHER ROUNDUP FOR EASTERN NORTH CAROLINA NATIONAL WEATHER SERVICE NEWPORT/MOREHEAD CITY NC 500 AM EDT WED JUN 03 2015 NOTE: "FAIR" INDICATES FEW OR NO CLOUDS BELOW 12,000 FEET WITH NO SIGNIFICANT WEATHER AND/OR OBSTRUCTIONS TO VISIBILITY NCZ015>017-031-032-045>047-102-103-031000- NORTH COAST CITY SKY/WX TMP DP RH WIND PRES REMARKS EDENTON N/A 64 64 99 NE6 30.01R FOG ELIZABETH CITY CLOUDY 66 65 96 N10 30.02S FOG KITTY HAWK CLOUDY 65 65 99 N5 29.99S MANTEO CLOUDY 68 67 98 N5 30.01R $$ NCZ045>047-081-094-103-104-031000- CENTRAL COAST CITY SKY/WX TMP DP RH WIND PRES REMARKS FRISCO CLOUDY 74 68 81 SE6 29.99S SWANQUARTER N/A 68 N/A N/A NE3 29.97S $$ NCZ095-097-098-100-101-031000- SOUTHERN COAST CITY SKY/WX TMP DP RH WIND PRES REMARKS BEAUFORT CLOUDY 71 69 93 E6 29.97S CEDAR ISLAND N/A 73 N/A N/A SE2 30.00S JACKSONVILLE TSTM 68 66 93 W12 29.99R FOG PINEY ISLAND CLOUDY N/A N/A N/A SE6 29.97S WILMINGTON LGT RAIN 68 67 96 N3 29.98F $$ NCZ011>013-027>030-043-044-078>080-089-090>093-098-031000- COASTAL PLAIN CITY SKY/WX TMP DP RH WIND PRES REMARKS AHOSKIE DRIZZLE 64 63 96 N9 30.03S CLINTON CLOUDY 67 67 100 NE3 29.95F ELIZABETHTOWN LGT RAIN 66 66 100 CALM 29.97R GOLDSBORO LGT RAIN 70 70 100 CALM 29.96F GREENVILLE RAIN 70 70 100 CALM 30.01R HAVELOCK RAIN 70 67 90 E7 29.98R KENANSVILLE RAIN 68 67 97 CALM 29.98F KINSTON RAIN 69 68 97 CALM 29.99F NEW BERN CLOUDY 70 68 93 CALM 29.98S FOG RICHLANDS CLOUDY 66 64 94 SE5 30.00R ROCKY MOUNT CLOUDY 67 66 97 N9 30.01R WASHINGTON LGT RAIN 69 68 94 NE9 29.98F WHITEVILLE LGT RAIN 67 65 94 CALM 29.98R $$ AMZ130-135-150-152-154-156-158-170-250-252-270-ANZ085-086-088-633-658-670-031000- MARINE OBSERVATIONS STATION/POSITION TIME TEMP WIND PRES WAVE SWELL AIR SEA DIR/SP/G HT/PER HT/PER (UTC) (F) (DEG/KT/KT) (MB) (FT/S) (FT/S) CHESAPEAKE LIGHT 0900 64 360/ 17/ 18 1016.8 64 E VA BEACH 0850 72 73 280/ 4/ 6 1015.1 4/ 7 3/ 7 DUCK 0900 62 58 350/ 10/ 11 1015.1 2 E DUCK 0811 59 N/A 4/ 7 OREGON INLET 0900 69 69 350/ 7/ 9 1015.7 13E OREGON INLT 0900 76 N/A 3/ 6 HATTERAS CG 0900 75 77 110/ 3/ 4 1014.9 DIAMOND BUOY 0850 74 79 240/ 10/ 12 1015.4 3/ 8 2/ 8 CAPE LOOKOUT 0900 72 120/ 14/ 15 1014.6 BEAUFORT LAB 0900 72 79 110/ 5/ 7 1014.1 30 SE NEW RVR IN NOT AVBL 27 SE WRIGHTSVLE 0900 78 290/ 16/ 17 N/A 5 SE WRIGHTSVLE 0808 73 78 280/ 19/ 25 1015.1 225 S CAPE HAT 0850 77 76 170/ 8/ 10 1015.8 3/ 8 3/ 8 41 SE CHARLESTON 0850 73 80 210/ 10/ 12 1014.6 2/ 9 2/ 9 $$

USA.gov is the U.S. government's official web portal to all federal, state and local government web resources and services.